Weather History for KMVY - October, 2013

Change the Weather History Date:

Friday, October 11, 2013

  Actual Average Record
Temperature  
Mean Temperature 64 °F -  
Max Temperature 70 °F 62 °F 83 °F (1949)
Min Temperature 57 °F 47 °F 0 °F (1953)
Growing Degree Days 14 (Base 50)    
Moisture  
Dew Point 56 °F    
Average Humidity 80    
Maximum Humidity 90    
Minimum Humidity 63    
Precipitation  
Precipitation 0.00 in - - ()
Sea Level Pressure  
Sea Level Pressure 30.09 in    
Wind  
Wind Speed 12 mph (NE)    
Max Wind Speed 15 mph    
Max Gust Speed 25 mph    
Visibility 10 miles    
Events      
Averages and records for this station are not official NWS values.
T = Trace of Precipitation, MM = Missing Value Source: NWS Daily Summary

Daily Weather History Graph

Daily Weather History Graph

Search for Another Location

Airport or City:

Trip Planner

Search our weather history database for the weather conditions in past years. The results will help you decide how hot, cold, wet, or windy it might be!

Date:

Astronomy

Oct. 11, 2013 Rise Set
Actual Time 6:50 AM EDT 6:07 PM EDT
Civil Twilight 6:22 AM EDT 6:35 PM EDT
Nautical Twilight 5:50 AM EDT 7:07 PM EDT
Astronomical Twilight 5:18 AM EDT 7:39 PM EDT
Moon 1:31 PM EDT (10/11) 11:47 PM EDT (10/11)
Length of Visible Light 12h 12m
Length of Day
11h 17m
Waxing Crescent, 47% of the Moon is Illuminated
Oct 11
Waxing Crescent
Oct 11
First Quarter
Oct 18
Full
Oct 26
Last Quarter
Nov 3
New

Hourly Weather History & Observations

Time (EDT) Temp. Dew Point Humidity Pressure Visibility Wind Dir Wind Speed Gust Speed Precip Events Conditions
12:53 AM 61.0 °F 57.0 °F 87% 30.11 in 10.0 mi NE 10.4 mph - N/A   Overcast
1:53 AM 61.0 °F 57.9 °F 90% 30.10 in 10.0 mi NE 12.7 mph - N/A   Overcast
2:53 AM 61.0 °F 57.9 °F 90% 30.08 in 10.0 mi ENE 12.7 mph - N/A   Overcast
3:53 AM 62.1 °F 59.0 °F 90% 30.07 in 10.0 mi ENE 13.8 mph - N/A   Overcast
4:53 AM 62.1 °F 59.0 °F 90% 30.07 in 10.0 mi ENE 11.5 mph - N/A   Overcast
5:53 AM 61.0 °F 57.9 °F 90% 30.07 in 10.0 mi NE 10.4 mph - N/A   Overcast
6:53 AM 61.0 °F 57.9 °F 90% 30.07 in 10.0 mi NE 10.4 mph - N/A   Overcast
7:53 AM 62.1 °F 57.9 °F 86% 30.08 in 10.0 mi NE 10.4 mph - N/A   Overcast
8:53 AM 62.1 °F 57.9 °F 86% 30.09 in 10.0 mi NE 13.8 mph - N/A   Overcast
9:44 AM 64.4 °F 57.2 °F 77% 30.09 in 10.0 mi NE 13.8 mph 21.9 mph N/A   Overcast
9:53 AM 64.0 °F 57.9 °F 80% 30.09 in 10.0 mi NE 13.8 mph 21.9 mph N/A   Overcast
10:53 AM 68.0 °F 57.9 °F 70% 30.09 in 10.0 mi NE 12.7 mph 21.9 mph N/A   Overcast
11:53 AM 68.0 °F 57.9 °F 70% 30.09 in 10.0 mi NE 13.8 mph 25.3 mph N/A   Overcast
12:53 PM 68.0 °F 57.0 °F 68% 30.08 in 10.0 mi NNE 12.7 mph - N/A   Overcast
1:53 PM 70.0 °F 57.0 °F 63% 30.07 in 10.0 mi NE 13.8 mph 21.9 mph N/A   Overcast
2:53 PM 64.9 °F 55.9 °F 73% 30.07 in 10.0 mi NE 13.8 mph 20.7 mph N/A   Overcast
3:53 PM 64.0 °F 55.9 °F 75% 30.07 in 10.0 mi NNE 10.4 mph - N/A   Overcast
4:53 PM 63.0 °F 55.0 °F 75% 30.07 in 10.0 mi NNE 15.0 mph 19.6 mph N/A   Clear
5:53 PM 62.1 °F 54.0 °F 75% 30.08 in 10.0 mi NE 9.2 mph - N/A   Clear
6:53 PM 60.1 °F 54.0 °F 80% 30.09 in 10.0 mi NNE 10.4 mph - N/A   Scattered Clouds
7:53 PM 59.0 °F 54.0 °F 83% 30.11 in 10.0 mi NNE 10.4 mph - N/A   Clear
8:53 PM 59.0 °F 54.0 °F 83% 30.12 in 10.0 mi NNE 6.9 mph - N/A   Clear
9:53 PM 59.0 °F 53.1 °F 81% 30.12 in 10.0 mi NE 6.9 mph - N/A   Clear
10:53 PM 59.0 °F 50.0 °F 72% 30.11 in 10.0 mi NE 10.4 mph - N/A   Clear
11:53 PM 57.0 °F 51.1 °F 81% 30.11 in 10.0 mi NNE 3.5 mph - N/A   Clear